Grand Island, NE

9:11 PM CDT on September 26, 2016 (GMT -0500)
Central Nebraska Regional

Weather History for KGRI - October, 2013

Change the Weather History Date:

Wednesday, October 2, 2013

  Actual Average Record
Temperature  
Mean Temperature 71 °F 58 °F  
Max Temperature 86 °F 71 °F 95 °F (1938)
Min Temperature 55 °F 45 °F 30 °F (1999)
Degree Days  
Heating Degree Days 0 8  
Month to date heating degree days 0 16  
Since 1 July heating degree days 24 131  
Cooling Degree Days 6 1  
Month to date cooling degree days 7 2  
Year to date cooling degree days 1257 1025  
Growing Degree Days 20 (Base 50)    
Moisture  
Dew Point 60 °F    
Average Humidity 68    
Maximum Humidity 93    
Minimum Humidity 43    
Precipitation  
Precipitation 2.07 in 0.07 in 2.07 in (2013)
Month to date precipitation 2.07 0.14  
Year to date precipitation 23.86 23.14  
Snow  
Snow 0.00 in 0.00 in - ()
Month to date snowfall 0.0 0.0  
Since 1 July snowfall 0.0 0.1  
Since 1 September snowfall 0.0 0.1  
Snow Depth 0.00 in    
Sea Level Pressure  
Sea Level Pressure 29.85 in    
Wind  
Wind Speed 11 mph (SE)    
Max Wind Speed 28 mph    
Max Gust Speed 35 mph    
Visibility 8 miles    
Events Rain , Thunderstorm    
T = Trace of Precipitation, MM = Missing Value Source: NWS Daily Summary

Daily Weather History Graph

Daily Weather History Graph

Search for Another Location

Airport or City:

Trip Planner

Search our weather history database for the weather conditions in past years. The results will help you decide how hot, cold, wet, or windy it might be!

Date:

Astronomy

Oct. 02, 2013 Rise Set
Actual Time 7:31 AM CDT 7:13 PM CDT
Civil Twilight 7:03 AM CDT 7:40 PM CDT
Nautical Twilight 6:31 AM CDT 8:12 PM CDT
Astronomical Twilight 5:59 AM CDT 8:44 PM CDT
Moon 5:04 AM CDT (10/2) 5:50 PM CDT (10/2)
Length of Visible Light 12h 36m
Length of Day
11h 41m
Waning Crescent, 6% of the Moon is Illuminated
Oct 2
Waning Crescent
Oct 4
New
Oct 11
First Quarter
Oct 18
Full
Oct 26
Last Quarter

Hourly Weather History & Observations

Time (CDT) Temp. Heat Index Dew Point Humidity Pressure Visibility Wind Dir Wind Speed Gust Speed Precip Events Conditions
12:53 AM 55.0 °F - 48.0 °F 77% 29.94 in 10.0 mi East 4.6 mph - N/A   Clear
1:53 AM 57.9 °F - 48.9 °F 72% 29.93 in 10.0 mi ESE 3.5 mph - N/A   Clear
2:53 AM 57.9 °F - 52.0 °F 81% 29.92 in 10.0 mi ESE 4.6 mph - N/A   Clear
3:53 AM 59.0 °F - 55.0 °F 87% 29.90 in 10.0 mi SE 4.6 mph - N/A   Clear
4:53 AM 59.0 °F - 55.9 °F 90% 29.89 in 10.0 mi SE 5.8 mph - N/A   Clear
5:53 AM 62.1 °F - 57.9 °F 86% 29.88 in 10.0 mi SSE 6.9 mph - N/A   Clear
6:53 AM 63.0 °F - 59.0 °F 87% 29.88 in 10.0 mi SSE 9.2 mph - N/A   Partly Cloudy
7:53 AM 63.0 °F - 60.1 °F 90% 29.89 in 10.0 mi South 11.5 mph - N/A   Clear
8:53 AM 64.9 °F - 60.1 °F 84% 29.90 in 10.0 mi South 10.4 mph - N/A   Clear
9:53 AM 68.0 °F - 61.0 °F 78% 29.90 in 10.0 mi South 10.4 mph - N/A   Overcast
10:53 AM 73.9 °F - 61.0 °F 64% 29.89 in 10.0 mi South 12.7 mph - N/A   Mostly Cloudy
11:53 AM 77.0 °F - 61.0 °F 58% 29.88 in 10.0 mi South 12.7 mph - N/A   Mostly Cloudy
12:53 PM 82.0 °F 82.7 °F 61.0 °F 49% 29.85 in 10.0 mi South 13.8 mph 23.0 mph N/A   Partly Cloudy
1:53 PM 84.9 °F 84.4 °F 59.0 °F 41% 29.82 in 10.0 mi South 15.0 mph 24.2 mph N/A   Scattered Clouds
2:53 PM 82.9 °F 83.2 °F 60.1 °F 46% 29.81 in 10.0 mi South 13.8 mph - N/A   Mostly Cloudy
3:53 PM 84.9 °F 85.0 °F 61.0 °F 44% 29.79 in 10.0 mi South 16.1 mph 25.3 mph N/A   Partly Cloudy
4:53 PM 82.9 °F 84.0 °F 63.0 °F 51% 29.77 in 10.0 mi SSE 17.3 mph 23.0 mph N/A   Clear
5:53 PM 80.1 °F 81.5 °F 63.0 °F 56% 29.77 in 10.0 mi SSE 15.0 mph 25.3 mph N/A   Clear
6:53 PM 79.0 °F - 64.0 °F 60% 29.77 in 10.0 mi SSE 11.5 mph - N/A   Clear
7:53 PM 75.9 °F - 64.9 °F 69% 29.78 in 10.0 mi SSE 9.2 mph - N/A   Scattered Clouds
8:53 PM 75.0 °F - 64.9 °F 71% 29.78 in 10.0 mi SSE 8.1 mph - N/A   Mostly Cloudy
9:43 PM 66.2 °F - 62.6 °F 88% 29.80 in 10.0 mi North 9.2 mph - 0.00 in Thunderstorm Thunderstorm
9:53 PM 66.0 °F - 62.1 °F 87% 29.78 in 10.0 mi North 19.6 mph 24.2 mph 0.00 in Thunderstorm Thunderstorm
10:06 PM 64.4 °F - 62.6 °F 94% 29.82 in 8.0 mi North 20.7 mph 32.2 mph 0.01 in Rain , Thunderstorm Light Thunderstorms and Rain
10:18 PM 64.4 °F - 62.6 °F 94% 29.84 in 6.0 mi NNE 16.1 mph 28.8 mph 0.04 in Rain , Thunderstorm Light Thunderstorms and Rain
10:31 PM 62.6 °F - 62.6 °F 100% 29.83 in 2.5 mi North 23.0 mph 31.1 mph 0.17 in Rain , Thunderstorm Heavy Thunderstorms and Rain
10:34 PM 62.6 °F - 62.6 °F 100% 29.83 in 1.5 mi North 25.3 mph 33.4 mph 0.27 in Rain , Thunderstorm Heavy Thunderstorms and Rain
10:41 PM 62.6 °F - 60.8 °F 94% 29.83 in 1.2 mi North 20.7 mph 34.5 mph 0.47 in Rain , Thunderstorm Heavy Thunderstorms and Rain
10:50 PM 62.6 °F - 62.6 °F 100% 29.86 in 1.2 mi North 16.1 mph 24.2 mph 0.81 in Rain , Thunderstorm Heavy Thunderstorms and Rain
10:53 PM 63.0 °F - 62.1 °F 97% 29.84 in 1.0 mi North 11.5 mph 23.0 mph 0.94 in Rain , Thunderstorm Heavy Thunderstorms and Rain
11:12 PM 62.6 °F - 62.6 °F 100% 29.89 in 1.8 mi North 4.6 mph - 0.60 in Rain , Thunderstorm Heavy Thunderstorms and Rain
11:29 PM 62.6 °F - 60.8 °F 94% 29.83 in 2.0 mi ENE 6.9 mph - 0.94 in Rain , Thunderstorm Heavy Thunderstorms and Rain
11:38 PM 62.6 °F - 60.8 °F 94% 29.85 in 4.0 mi Calm Calm - 1.01 in Rain , Thunderstorm Thunderstorms and Rain
11:53 PM 62.1 °F - 61.0 °F 96% 29.80 in 5.0 mi East 10.4 mph - 1.08 in Rain , Thunderstorm Rain